Regional Weather Roundup
Issued by NWS Sioux Falls, SD

Home | Current Version | Previous Version | Graphics & Text | Print | Product List | Glossary Off
Versions: 1 2 3 4 5 6 7 8 9 10 11 12 13 14 15 16 17 18 19 20 21 22 23 24 25 26 27 28 29 30 31 32 33 34 35 36 37 38 39 40 41 42 43 44 45 46 47 48 49 50

000
ASUS43 KFSD 181810
RWRFSD

WEATHER ROUNDUP FOR SE SOUTH DAKOTA/SW MINNESOTA/NW IOWA
NATIONAL WEATHER SERVICE SIOUX FALLS SD
100 PM CDT WED APR 18 2018

NOTE: "FAIR" INDICATES FEW OR NO CLOUDS BELOW 12,000 FEET WITH NO
SIGNIFICANT WEATHER AND OR OBSTRUCTIONS TO VISIBILITY.


SDZ038>040-050-052>070-181900-
SOUTHEAST SOUTH DAKOTA

CITY           SKY/WX    TMP DP  RH WIND       PRES   REMARKS
BROOKINGS      CLOUDY    36  27  69 NW15      30.03R
CHAMBERLAIN    RAIN      37  37 100 NW7       30.15R
6HR MIN TEMP:  34; 6HR MAX TEMP:  37; 6HR PCP:  0.02;

HURON          CLOUDY    35  32  88 NW14      30.11S WCI  26
6HR MIN TEMP:  32; 6HR MAX TEMP:  35; 6HR PCP:  0.07;

MADISON        MOCLDY    32  32 100 NW21      30.04R WCI  20
MITCHELL       LGT SNOW  34  32  92 NW13      30.12R FOG     WCI  25
6HR MIN TEMP:  33; 6HR MAX TEMP:  34; 6HR PCP:  0.02;

SIOUX FALLS    LGT SNOW  32  30  92 N13       30.04R VSB 1   WCI  22
6HR MIN TEMP:  30; 6HR MAX TEMP:  32; 6HR PCP:  0.18;

WINNER         LGT SNOW  35  31  85 NW10      30.17R FOG     WCI  27
YANKTON        LGT SNOW  35  31  85 N16       30.08R FOG     WCI  25
$$

MNZ071-072-080-081-089-090-097-098-181900-
SOUTHWEST MINNESOTA

CITY           SKY/WX    TMP DP  RH WIND       PRES   REMARKS
FAIRMONT       SNOW      32  29  88 N15       29.97R VSB 1/2 WCI  22
JACKSON        LGT SNOW  32  28  86 VRB10G20  29.97R WCI  24
LUVERNE        LGT SNOW  32  28  86 N14       30.02R WCI  22
MARSHALL       CLOUDY    35  27  72 N10       30.02S WCI  27
6HR MIN TEMP:  31; 6HR MAX TEMP:  35; 6HR PCP: TRACE;

MONTEVIDEO     CLOUDY    41  27  56 CALM      30.04R
PIPESTONE      CLOUDY   N/A N/A N/A N8        30.00R
REDWOOD FALLS  CLOUDY    36  27  69 N12G18    30.00R
TRACY          CLOUDY    33  30  87 N10       30.01R FOG     WCI  25
WINDOM         LGT SNOW  32  18  55 N15       29.98R VSB 3/4 WCI  22
WORTHINGTON    SNOW      33  29  85 N15       29.99R VSB 1/2 WCI  23
$$

IAZ001>003-012>014-020>022-031-032-NEZ013-014-SDZ071-181900-
NORTHWEST IOWA

CITY           SKY/WX    TMP DP  RH WIND       PRES   REMARKS
CHEROKEE       LGT SNOW  33  30  91 N16G23    29.99R WCI  22
DENISON        MIX PCPN  32  28  86 N16       29.98R WCI  21
ESTHERVILLE    LGT SNOW  30  28  92 N16       29.96R VSB 3/4 WCI  19
LE MARS        LGT SNOW  34  30  86 N15G24    30.02R WCI  24
ORANGE CITY    LGT SNOW  34  32  93 N14G23    30.00R WCI  24
SHELDON        MIX PCPN  32  32 100 N21       29.98R VSB 3/4 WCI  20
SIOUX CITY     CLOUDY    35  28  75 N22G30    30.02R WCI  23
6HR MIN TEMP:  31; 6HR MAX TEMP:  35; 6HR PCP:  0.08;

SPENCER        LGT SNOW  33  28  81 N17       29.98R VSB 1   WCI  22
6HR MIN TEMP:  29; 6HR MAX TEMP:  33; 6HR PCP:  0.25;

STORM LAKE     LGT RAIN  30  28  93 N17       29.96R WCI  18
$$

ABBREVIATIONS USED IN REMARKS
   TC - TEMPERATURE IN CELSIUS
  WCI - WIND CHILL INDEX
   HX - HEAT INDEX
  VSB - VISIBILITY





USA.gov is the U.S. government's official web portal to all federal, state and local government web resources and services.